Regional Weather Roundup
Issued by NWS Albany, NY

Home | Current Version | Previous Version | Text Only | Print | Product List | Glossary On
Versions: 1 2 3 4 5 6 7 8 9 10 11 12 13 14 15 16 17 18 19 20 21 22 23 24 25 26 27 28 29 30 31 32 33 34 35 36 37 38 39 40 41 42 43 44 45 46 47 48 49 50
000
ASUS41 KALY 050910
RWRALY

NEW YORK STATE HOURLY WEATHER ROUNDUP
NATIONAL WEATHER SERVICE ALBANY NY
500 AM EDT TUE MAY 05 2015

NOTE: "FAIR" INDICATES FEW OR NO CLOUDS BELOW 12,000 FEET WITH NO
SIGNIFICANT WEATHER AND/OR NO OBSTRUCTIONS TO VISIBILITY.

NYZ032-033-038>043-046>054-057>066-NYZ062>081-051000-
EAST


CITY           SKY/WX    TMP DP  RH WIND       PRES   REMARKS
ALBANY         CLOUDY    65  52  62 W8        30.15S
GLENS FALLS    PTCLDY    61  51  70 N8        30.14R
POUGHKEEPSIE   MOCLDY    64  48  56 CALM      30.12S
NEWBURGH       MOCLDY    64  50  59 SW5       30.15R
MONTGOMERY     MOCLDY    60  50  69 S3        30.14R
WHITE PLAINS   PTCLDY    62  48  60 CALM      30.14F
ISLIP          CLEAR     56  48  74 W5        30.16R
NEW YORK CITY  PTCLDY    68  46  45 SW6       30.15R
CENTRAL PARK   CLEAR     67  46  47 VRB5      30.18R
$$

NYZ005>009-017-018-044>046-055-056-051000-
CENTRAL


CITY           SKY/WX    TMP DP  RH WIND       PRES   REMARKS
FULTON         FOG       51  49  92 NW3       30.22R VSB 1/4
SYRACUSE       CLOUDY    58  54  86 NW6       30.21R
ROME           CLEAR     54  52  93 CALM      30.22R
ELMIRA         CLOUDY    63  60  90 NE5       30.21R
BINGHAMTON     LGT RAIN  59  55  87 NW5       30.20S
MONTICELLO     MOCLDY    63  52  67 W6        30.19S
$$

NYZ026>034-041>043-051000-
NORTH


CITY           SKY/WX    TMP DP  RH WIND       PRES   REMARKS
WATERTOWN      FOG       45  44  97 CALM      30.22R VSB 1/4
FORT DRUM      NOT AVBL
MASSENA        PTCLDY    51  47  86 W5        30.22R
SARANAC LAKE   MOCLDY    52  49  89 VRB3      30.18R
PLATTSBURGH    CLEAR     57  50  77 NW10      30.16R
$$

NYZ001>004-010>016-019>021-051000-
WEST


CITY           SKY/WX    TMP DP  RH WIND       PRES   REMARKS
NIAGARA FALLS  CLEAR     44  42  93 CALM      30.23R FOG
BUFFALO        FOG       48  47  96 SW5       30.23R VSB 1/4
DUNKIRK        FOG       49  49 100 CALM      30.24R VSB<1/4
JAMESTOWN      CLOUDY    55  52  88 NW3       30.25S
WELLSVILLE     MOCLDY    58  53  84 NW6       30.25R
ROCHESTER      PTCLDY    54  51  90 CALM      30.23R
PENN YAN       MOCLDY    60  54  80 N3        30.22R
$$

             KEY
       WCI = WIND CHILL INDEX
       VSB = VISIBILITY
       HX  = HEAT INDEX
$$



USA.gov is the U.S. government's official web portal to all federal, state and local government web resources and services.